• In Portugal
  • List of Countries
  • For 7 days
  • Water Temperature
  • Satellite Maps
  • Weather Map
  • Weather Widgets
  • user-avatar
    Login

    Hourly Weather Rozana

    Today, 26 September, Wednesday

    Time Temperature Precipitation Wind Pressure Humidity
    00:00 +4°C° 0 mm 2 mps 742 mmHg 75%
    01:00 +4°C° 0 mm 2 mps 742 mmHg 75%
    02:00 +3°C° 0 mm 2 mps 742 mmHg 76%
    03:00 +3°C° 0 mm 2 mps 742 mmHg 76%
    04:00 +3°C° 0 mm 2 mps 742 mmHg 76%
    05:00 +3°C° 0 mm 2 mps 742 mmHg 75%
    06:00 +4°C° 0 mm 2 mps 742 mmHg 74%
    07:00 +4°C° 0 mm 2 mps 742 mmHg 73%
    08:00 +7°C° 0 mm 3 mps 742 mmHg 64%
    09:00 +9°C° 0 mm 3 mps 742 mmHg 56%
    10:00 +11°C° 0 mm 4 mps 741 mmHg 48%
    11:00 +12°C° 0 mm 4 mps 741 mmHg 46%
    12:00 +12°C° 0 mm 4 mps 740 mmHg 44%
    13:00 +13°C° 0 mm 5 mps 740 mmHg 42%
    14:00 +13°C° 0 mm 4 mps 739 mmHg 43%
    15:00 +13°C° 0 mm 4 mps 739 mmHg 44%
    16:00 +13°C° 0 mm 4 mps 738 mmHg 46%
    17:00 +12°C° 0 mm 4 mps 738 mmHg 49%
    18:00 +11°C° 0 mm 4 mps 738 mmHg 52%
    19:00 +8°C° 0 mm 4 mps 738 mmHg 55%
    20:00 +8°C° 0 mm 4 mps 738 mmHg 55%
    21:00 +8°C° 0 mm 4 mps 737 mmHg 56%
    22:00 +8°C° 0 mm 4 mps 737 mmHg 56%
    23:00 +7°C° 0 mm 4 mps 737 mmHg 57%

    Tomorrow, 27 September, Thursday

    Time Temperature Precipitation Wind Pressure Humidity
    00:00 +8°C° 0 mm 3 mps 737 mmHg 57%
    01:00 +8°C° 0 mm 3 mps 737 mmHg 58%
    02:00 +8°C° 0 mm 3 mps 737 mmHg 58%
    03:00 +8°C° 0 mm 3 mps 737 mmHg 58%
    04:00 +8°C° 0 mm 3 mps 736 mmHg 59%
    05:00 +9°C° 0 mm 3 mps 736 mmHg 59%
    06:00 +9°C° 0 mm 3 mps 736 mmHg 60%
    07:00 +10°C° 0 mm 3 mps 736 mmHg 60%
    08:00 +12°C° 0 mm 3 mps 737 mmHg 58%
    09:00 +14°C° 0 mm 3 mps 737 mmHg 56%
    10:00 +17°C° 0 mm 3 mps 737 mmHg 54%
    11:00 +18°C° 0 mm 3 mps 736 mmHg 54%
    12:00 +19°C° 0 mm 3 mps 736 mmHg 53%
    13:00 +20°C° 0 mm 3 mps 736 mmHg 53%
    14:00 +20°C° 0 mm 3 mps 735 mmHg 54%
    15:00 +20°C° 0 mm 3 mps 735 mmHg 55%
    16:00 +20°C° 0 mm 3 mps 734 mmHg 56%
    17:00 +18°C° 0 mm 3 mps 734 mmHg 60%
    18:00 +16°C° 0 mm 3 mps 733 mmHg 64%
    19:00 +14°C° 0 mm 3 mps 733 mmHg 67%
    20:00 +13°C° 0 mm 3 mps 733 mmHg 68%
    21:00 +13°C° 0 mm 3 mps 732 mmHg 68%
    22:00 +13°C° 0 mm 3 mps 732 mmHg 68%
    23:00 +12°C° 0 mm 3 mps 732 mmHg 67%

    Day after tomorrow, 28 September, Friday

    Time Temperature Precipitation Wind Pressure Humidity
    00:00 +12°C° 0 mm 3 mps 731 mmHg 66%
    01:00 +12°C° 0 mm 3 mps 731 mmHg 65%
    02:00 +11°C° 0 mm 3 mps 730 mmHg 65%
    03:00 +11°C° 0 mm 3 mps 730 mmHg 65%
    04:00 +10°C° 0 mm 3 mps 729 mmHg 65%
    05:00 +10°C° 0 mm 3 mps 729 mmHg 66%
    06:00 +10°C° 0 mm 2 mps 729 mmHg 67%
    07:00 +10°C° 0 mm 2 mps 729 mmHg 68%
    08:00 +13°C° 0 mm 2 mps 730 mmHg 64%
    09:00 +14°C° 0 mm 3 mps 730 mmHg 60%
    10:00 +16°C° 0 mm 3 mps 730 mmHg 56%
    11:00 +17°C° 0 mm 3 mps 730 mmHg 56%
    12:00 +17°C° 0 mm 3 mps 730 mmHg 57%
    13:00 +17°C° 0 mm 4 mps 730 mmHg 58%
    14:00 +15°C° 0 mm 4 mps 729 mmHg 62%
    15:00 +14°C° 0 mm 4 mps 729 mmHg 66%
    16:00 +14°C° 0 mm 4 mps 729 mmHg 70%
    17:00 +13°C° 0 mm 3 mps 729 mmHg 73%
    18:00 +11°C° 0 mm 3 mps 730 mmHg 76%
    19:00 +10°C° 0 mm 2 mps 730 mmHg 79%
    20:00 +10°C° 0 mm 2 mps 730 mmHg 77%
    21:00 +9°C° 0 mm 2 mps 730 mmHg 76%
    22:00 +9°C° 0 mm 2 mps 731 mmHg 75%
    23:00 +9°C° 0 mm 2 mps 731 mmHg 74%

    29 September, Saturday

    Time Temperature Precipitation Wind Pressure Humidity
    00:00 +8°C° 0 mm 2 mps 731 mmHg 73%
    01:00 +9°C° 0 mm 1 mps 731 mmHg 73%
    02:00 +8°C° 0 mm 2 mps 731 mmHg 73%
    03:00 +8°C° 0 mm 2 mps 731 mmHg 73%
    04:00 +7°C° 0 mm 3 mps 731 mmHg 73%
    05:00 +7°C° 0 mm 3 mps 731 mmHg 74%
    06:00 +7°C° 0 mm 3 mps 732 mmHg 74%
    07:00 +5°C° 0 mm 3 mps 732 mmHg 75%
    08:00 +7°C° 0 mm 3 mps 732 mmHg 68%
    09:00 +8°C° 0 mm 4 mps 733 mmHg 62%
    10:00 +10°C° 0 mm 4 mps 733 mmHg 56%
    11:00 +10°C° 0 mm 4 mps 733 mmHg 53%
    12:00 +11°C° 0 mm 4 mps 733 mmHg 50%
    13:00 +12°C° 0 mm 4 mps 733 mmHg 47%
    14:00 +11°C° 0 mm 4 mps 733 mmHg 48%
    15:00 +11°C° 0 mm 3 mps 733 mmHg 49%
    16:00 +11°C° 0 mm 3 mps 733 mmHg 50%
    17:00 +9°C° 0 mm 3 mps 734 mmHg 55%
    18:00 +8°C° 0 mm 2 mps 734 mmHg 60%
    19:00 +7°C° 0 mm 1 mps 734 mmHg 66%
    20:00 +7°C° 0 mm 1 mps 734 mmHg 67%
    21:00 +7°C° 0 mm 1 mps 735 mmHg 68%
    22:00 +6°C° 0 mm 1 mps 735 mmHg 69%
    23:00 +6°C° 0 mm 1 mps 735 mmHg 70%

    30 September, Sunday

    Time Temperature Precipitation Wind Pressure Humidity
    00:00 +6°C° 0 mm 1 mps 735 mmHg 71%
    01:00 +5°C° 0 mm 1 mps 734 mmHg 73%
    02:00 +5°C° 0 mm 1 mps 734 mmHg 74%
    03:00 +4°C° 0 mm 0 mps 734 mmHg 75%
    04:00 +4°C° 0 mm 0 mps 734 mmHg 77%
    05:00 +4°C° 0 mm 0 mps 734 mmHg 75%
    06:00 +5°C° 0 mm 0 mps 734 mmHg 74%
    07:00 +6°C° 0 mm 1 mps 734 mmHg 72%
    08:00 +8°C° 0 mm 1 mps 734 mmHg 64%
    09:00 +10°C° 0 mm 1 mps 734 mmHg 55%
    10:00 +12°C° 0 mm 2 mps 734 mmHg 46%
    11:00 +13°C° 0 mm 2 mps 734 mmHg 43%
    12:00 +14°C° 0 mm 2 mps 733 mmHg 40%
    13:00 +14°C° 0 mm 2 mps 733 mmHg 37%
    14:00 +14°C° 0 mm 2 mps 732 mmHg 39%
    15:00 +14°C° 0 mm 2 mps 732 mmHg 40%
    16:00 +14°C° 0 mm 2 mps 731 mmHg 41%
    17:00 +12°C° 0 mm 2 mps 731 mmHg 46%
    18:00 +9°C° 0 mm 2 mps 731 mmHg 51%
    19:00 +8°C° 0 mm 1 mps 730 mmHg 55%
    20:00 +8°C° 0 mm 1 mps 730 mmHg 56%
    21:00 +7°C° 0 mm 1 mps 730 mmHg 58%
    22:00 +7°C° 0 mm 1 mps 729 mmHg 59%
    23:00 +7°C° 0 mm 1 mps 729 mmHg 60%

    1 October, Monday

    Time Temperature Precipitation Wind Pressure Humidity
    00:00 +7°C° 0 mm 1 mps 728 mmHg 61%
    01:00 +6°C° 0 mm 1 mps 728 mmHg 62%
    02:00 +6°C° 0 mm 1 mps 727 mmHg 64%
    03:00 +6°C° 0 mm 1 mps 727 mmHg 65%
    04:00 +6°C° 0 mm 1 mps 726 mmHg 66%
    05:00 +6°C° 0 mm 1 mps 726 mmHg 67%
    06:00 +7°C° 0 mm 1 mps 726 mmHg 67%
    07:00 +7°C° 0 mm 1 mps 726 mmHg 67%
    08:00 +9°C° 0 mm 2 mps 725 mmHg 62%
    09:00 +12°C° 0 mm 2 mps 725 mmHg 57%
    10:00 +13°C° 0 mm 3 mps 725 mmHg 52%
    11:00 +14°C° 0 mm 3 mps 724 mmHg 50%
    12:00 +15°C° 0 mm 4 mps 724 mmHg 48%
    13:00 +17°C° 0 mm 4 mps 723 mmHg 46%
    14:00 +17°C° 0 mm 3 mps 723 mmHg 48%
    15:00 +17°C° 0 mm 3 mps 722 mmHg 49%
    16:00 +17°C° 0 mm 2 mps 722 mmHg 51%
    17:00 +15°C° 0 mm 2 mps 721 mmHg 56%
    18:00 +13°C° 0 mm 2 mps 721 mmHg 62%
    19:00 +11°C° 0 mm 1 mps 721 mmHg 68%
    20:00 +10°C° 0 mm 1 mps 721 mmHg 70%
    21:00 +10°C° 0 mm 1 mps 721 mmHg 72%
    22:00 +9°C° 0 mm 1 mps 721 mmHg 74%
    23:00 +9°C° 0 mm 1 mps 721 mmHg 73%
    Show more